Oakes, ND

6:48 PM CST on January 22, 2018 (GMT -0600)
Oakes

Weather History for K2D5 - November, 2013

Change the Weather History Date:

Thursday, November 21, 2013

  Actual Average (KP67) Record (KP67)
Temperature  
Mean Temperature 12 °F -  
Max Temperature 19 °F 22 °F 24 °F (1997)
Min Temperature 5 °F 7 °F -2 °F (1996)
Degree Days  
Heating Degree Days 53    
Moisture  
Dew Point 6 °F    
Average Humidity 76    
Maximum Humidity 86    
Minimum Humidity 62    
Precipitation  
Precipitation 0.09 in - - ()
Sea Level Pressure  
Sea Level Pressure 30.48 in    
Wind  
Wind Speed 20 mph (NW)    
Max Wind Speed 31 mph    
Max Gust Speed 38 mph    
Visibility 10 miles    
Events Rain , Snow    
Averages and records for this station are not official NWS values.
T = Trace of Precipitation, MM = Missing Value Source: NWS Daily Summary

Daily Weather History Graph

Daily Weather History Graph

Search for Another Location

Airport or City:

Trip Planner

Search our weather history database for the weather conditions in past years. The results will help you decide how hot, cold, wet, or windy it might be!

Date:

Astronomy

Nov. 21, 2013 Rise Set
Actual Time 7:41 AM CST 4:54 PM CST
Civil Twilight 7:08 AM CST 5:27 PM CST
Nautical Twilight 6:31 AM CST 6:04 PM CST
Astronomical Twilight 5:56 AM CST 6:39 PM CST
Moon 8:34 PM CST (11/21) 10:48 AM CST (11/21)
Length of Visible Light 10h 18m
Length of Day
9h 12m
Waning Gibbous, 85% of the Moon is Illuminated
Nov 21
Waning Gibbous
Nov 25
Last Quarter
Dec 2
New
Dec 9
First Quarter
Dec 17
Full

Hourly Weather History & Observations

Time (CST) Temp. Windchill Dew Point Humidity Pressure Visibility Wind Dir Wind Speed Gust Speed Precip Events Conditions
12:15 AM 19.4 °F 1.8 °F 14.0 °F 80% 30.20 in 10.0 mi NNW 25.3 mph 32.2 mph N/A   Mostly Cloudy
12:35 AM 19.4 °F 2.8 °F 14.0 °F 80% 30.21 in 10.0 mi NNW 21.9 mph 27.6 mph N/A Snow Light Snow
12:55 AM 17.6 °F 0.1 °F 14.0 °F 86% 30.22 in 10.0 mi NNW 23.0 mph 26.5 mph N/A Snow Light Snow
1:15 AM 17.6 °F 0.5 °F 14.0 °F 86% 30.23 in 3.0 mi NNW 21.9 mph 26.5 mph 0.06 in Snow Light Snow
1:35 AM 17.6 °F -1.3 °F 12.2 °F 79% 30.24 in 9.0 mi NNW 27.6 mph 34.5 mph 0.09 in Snow Light Snow
1:55 AM 15.8 °F -4.4 °F 10.4 °F 79% 30.24 in 10.0 mi NNW 29.9 mph 33.4 mph 0.09 in Snow Light Snow
2:15 AM 15.8 °F -4.4 °F 10.4 °F 79% 30.25 in 10.0 mi NNW 29.9 mph 36.8 mph N/A Rain Light Freezing Rain
2:35 AM 15.8 °F -4.7 °F 8.6 °F 73% 30.27 in 10.0 mi NNW 31.1 mph 38.0 mph N/A   Mostly Cloudy
2:55 AM 15.8 °F -2.3 °F 10.4 °F 79% 30.29 in 10.0 mi NNW 23.0 mph 33.4 mph N/A   Overcast
3:15 AM 15.8 °F -3.1 °F 10.4 °F 79% 30.29 in 10.0 mi NNW 25.3 mph 28.8 mph N/A Snow Light Snow
3:35 AM 15.8 °F -2.3 °F 10.4 °F 79% 30.30 in 10.0 mi NNW 23.0 mph 33.4 mph N/A Snow Light Snow
3:55 AM 15.8 °F -1.5 °F 10.4 °F 79% 30.32 in 10.0 mi NW 20.7 mph 35.7 mph N/A Rain Light Freezing Rain
4:15 AM 15.8 °F -2.3 °F 10.4 °F 79% 30.32 in 10.0 mi NW 23.0 mph 28.8 mph N/A   Overcast
4:35 AM 15.8 °F -1.9 °F 10.4 °F 79% 30.33 in 10.0 mi NNW 21.9 mph - N/A Rain Light Freezing Rain
4:55 AM 15.8 °F -2.3 °F 10.4 °F 79% 30.34 in 10.0 mi NNW 23.0 mph 29.9 mph N/A Snow Light Snow
5:15 AM 14.0 °F -4.3 °F 8.6 °F 79% 30.35 in 10.0 mi NNW 21.9 mph 31.1 mph N/A   Overcast
5:35 AM 14.0 °F -4.7 °F 8.6 °F 79% 30.37 in 10.0 mi NW 23.0 mph 31.1 mph N/A   Overcast
5:55 AM 14.0 °F -5.5 °F 8.6 °F 79% 30.37 in 10.0 mi NNW 25.3 mph 34.5 mph N/A Snow Light Snow
6:15 AM 12.2 °F -7.1 °F 8.6 °F 85% 30.39 in 10.0 mi NNW 23.0 mph 32.2 mph N/A Snow Light Snow
6:35 AM 12.2 °F -5.3 °F 8.6 °F 85% 30.41 in 10.0 mi NNW 18.4 mph - N/A Snow Light Snow
6:55 AM 12.2 °F -6.7 °F 8.6 °F 85% 30.41 in 10.0 mi NNW 21.9 mph - N/A Snow Light Snow
7:15 AM 12.2 °F -6.3 °F 8.6 °F 85% 30.42 in 10.0 mi NNW 20.7 mph 27.6 mph N/A Snow Light Snow
7:35 AM 12.2 °F -7.1 °F 8.6 °F 85% 30.43 in 10.0 mi NNW 23.0 mph - N/A Snow Light Snow
7:55 AM 12.2 °F -6.3 °F 6.8 °F 79% 30.45 in 10.0 mi NNW 20.7 mph 27.6 mph N/A Snow Light Snow
8:15 AM 12.2 °F -7.1 °F 6.8 °F 79% 30.46 in 10.0 mi NNW 23.0 mph 27.6 mph N/A   Overcast
8:35 AM 12.2 °F -5.8 °F 6.8 °F 79% 30.48 in 10.0 mi NNW 19.6 mph 26.5 mph N/A   Overcast
8:55 AM 14.0 °F -3.9 °F 6.8 °F 73% 30.48 in 10.0 mi NNW 20.7 mph 24.2 mph N/A   Overcast
9:15 AM 12.2 °F -5.3 °F 6.8 °F 79% 30.49 in 10.0 mi North 18.4 mph - N/A   Overcast
9:35 AM 14.0 °F -3.9 °F 6.8 °F 73% 30.50 in 10.0 mi NNW 20.7 mph 24.2 mph N/A   Scattered Clouds
9:55 AM 12.2 °F -6.3 °F 6.8 °F 79% 30.50 in 10.0 mi NNW 20.7 mph 26.5 mph N/A   Mostly Cloudy
10:15 AM 14.0 °F -4.7 °F 6.8 °F 73% 30.51 in 10.0 mi NNW 23.0 mph - N/A   Overcast
10:35 AM 14.0 °F -3.4 °F 6.8 °F 73% 30.52 in 10.0 mi NNW 19.6 mph 27.6 mph N/A   Overcast
10:55 AM 12.2 °F -6.7 °F 6.8 °F 79% 30.52 in 10.0 mi NNW 21.9 mph 27.6 mph N/A Snow Light Snow
11:15 AM 10.4 °F -9.1 °F 5.0 °F 79% 30.53 in 10.0 mi NNW 21.9 mph 26.5 mph N/A   Mostly Cloudy
11:35 AM 10.4 °F -9.9 °F 5.0 °F 79% 30.53 in 10.0 mi NNW 24.2 mph 28.8 mph N/A   Scattered Clouds
11:55 AM 10.4 °F -8.6 °F 5.0 °F 79% 30.54 in 10.0 mi NNW 20.7 mph 26.5 mph N/A   Partly Cloudy
12:15 PM 12.2 °F -5.8 °F 5.0 °F 73% 30.54 in 10.0 mi NNW 19.6 mph 24.2 mph N/A   Partly Cloudy
12:35 PM 12.2 °F -5.3 °F 5.0 °F 73% 30.54 in 10.0 mi NNW 18.4 mph 25.3 mph N/A   Partly Cloudy
12:55 PM 14.0 °F -4.7 °F 5.0 °F 67% 30.53 in 10.0 mi NNW 23.0 mph - N/A   Partly Cloudy
1:15 PM 14.0 °F -3.9 °F 5.0 °F 67% 30.54 in 10.0 mi NNW 20.7 mph 24.2 mph N/A   Scattered Clouds
1:35 PM 14.0 °F -3.9 °F 5.0 °F 67% 30.54 in 10.0 mi NNW 20.7 mph 25.3 mph N/A   Mostly Cloudy
1:55 PM 14.0 °F -3.4 °F 5.0 °F 67% 30.53 in 10.0 mi NNW 19.6 mph - N/A   Partly Cloudy
2:15 PM 14.0 °F -3.4 °F 5.0 °F 67% 30.53 in 10.0 mi NNW 19.6 mph - N/A   Clear
2:35 PM 14.0 °F -3.4 °F 5.0 °F 67% 30.53 in 10.0 mi NNW 19.6 mph 25.3 mph N/A   Clear
2:55 PM 14.0 °F -3.0 °F 5.0 °F 67% 30.53 in 10.0 mi NNW 18.4 mph 24.2 mph N/A   Partly Cloudy
3:15 PM 14.0 °F -1.4 °F 5.0 °F 67% 30.54 in 10.0 mi NNW 15.0 mph 23.0 mph N/A   Clear
3:35 PM 14.0 °F -2.5 °F 5.0 °F 67% 30.55 in 10.0 mi NNW 17.3 mph - N/A   Clear
3:55 PM 14.0 °F -2.0 °F 5.0 °F 67% 30.56 in 10.0 mi NNW 16.1 mph - N/A   Clear
4:15 PM 14.0 °F -2.5 °F 5.0 °F 67% 30.57 in 10.0 mi NNW 17.3 mph - N/A   Clear
4:35 PM 14.0 °F -2.0 °F 5.0 °F 67% 30.58 in 10.0 mi NNW 16.1 mph - N/A   Clear
4:55 PM 14.0 °F 0.5 °F 5.0 °F 67% 30.59 in 10.0 mi NW 11.5 mph - N/A   Clear
5:15 PM 14.0 °F -1.4 °F 5.0 °F 67% 30.59 in 10.0 mi NW 15.0 mph 19.6 mph N/A   Clear
5:35 PM 14.0 °F -0.2 °F 3.2 °F 62% 30.60 in 10.0 mi NW 12.7 mph - N/A   Clear
5:55 PM 14.0 °F 1.2 °F 5.0 °F 67% 30.60 in 10.0 mi NW 10.4 mph - N/A   Clear
6:15 PM 12.2 °F -1.0 °F 3.2 °F 67% 30.61 in 10.0 mi NW 10.4 mph - N/A   Clear
6:35 PM 14.0 °F 2.0 °F 3.2 °F 62% 30.61 in 10.0 mi NW 9.2 mph - N/A   Clear
6:55 PM 12.2 °F -0.2 °F 1.4 °F 62% 30.61 in 10.0 mi NW 9.2 mph - N/A   Clear
7:15 PM 10.4 °F -0.4 °F 1.4 °F 67% 30.61 in 10.0 mi NW 6.9 mph - N/A   Clear
7:35 PM 8.6 °F -1.3 °F 1.4 °F 73% 30.61 in 10.0 mi NW 5.8 mph - N/A   Clear
7:55 PM 8.6 °F -1.3 °F 1.4 °F 73% 30.62 in 10.0 mi WNW 5.8 mph - N/A   Clear
8:15 PM 6.8 °F -4.8 °F 3.2 °F 85% 30.61 in 10.0 mi WNW 6.9 mph - N/A   Clear
8:35 PM 6.8 °F -3.5 °F 1.4 °F 79% 30.61 in 10.0 mi WNW 5.8 mph - N/A   Clear
8:55 PM 6.8 °F -4.8 °F 1.4 °F 79% 30.61 in 10.0 mi West 6.9 mph - N/A   Clear
9:15 PM 6.8 °F -2.0 °F 1.4 °F 79% 30.61 in 10.0 mi West 4.6 mph - N/A   Clear
9:35 PM 6.8 °F -0.1 °F 1.4 °F 79% 30.61 in 10.0 mi WSW 3.5 mph - N/A   Clear
9:55 PM 5.0 °F -5.6 °F -0.4 °F 78% 30.61 in 10.0 mi SW 5.8 mph - N/A   Clear
10:15 PM 5.0 °F -8.1 °F -0.4 °F 78% 30.60 in 10.0 mi SSW 8.1 mph - N/A   Clear
10:35 PM 5.0 °F -8.1 °F 1.4 °F 85% 30.59 in 10.0 mi South 8.1 mph - N/A   Clear
10:55 PM 6.8 °F -5.9 °F 1.4 °F 79% 30.58 in 10.0 mi South 8.1 mph - N/A   Clear
11:15 PM 5.0 °F -8.1 °F 1.4 °F 85% 30.58 in 10.0 mi SSW 8.1 mph - N/A   Clear
11:35 PM 5.0 °F -6.9 °F 1.4 °F 85% 30.57 in 10.0 mi SSW 6.9 mph - N/A   Clear
11:55 PM 5.0 °F -5.6 °F 1.4 °F 85% 30.57 in 10.0 mi South 5.8 mph - N/A   Clear